Location: Rounton
(54.4000°N, 1.3500°W)
Time: 02:48:20
(UTC+00:00)

Transit 2A Rocket - Visible Passes

Search period start: 23 February 2024 00:00
Search period end: 04 March 2024 00:00
Orbit: 591 x 904 km, 66.7° (Epoch: 22 February)

Date Brightness Start Highest point End Pass type
(mag) Time Alt. Az. Time Alt. Az. Time Alt. Az.
23 Feb 7.3 02:49:10 17° NE 02:49:10 17° NE 02:50:16 10° NE visible
23 Feb 6.0 04:28:58 26° NNW 04:28:58 26° NNW 04:32:44 10° NNE visible
23 Feb 6.6 06:09:35 10° NW 06:12:47 18° N 06:16:07 10° NE visible
24 Feb 7.8 02:06:26 10° NE 02:06:26 10° NE 02:06:26 10° NE visible
24 Feb 6.3 03:46:14 27° N 03:46:14 27° N 03:48:56 10° NE visible
24 Feb 6.6 05:26:02 13° NW 05:28:32 19° N 05:31:53 10° NE visible
25 Feb 6.9 03:03:28 21° NNE 03:03:28 21° NNE 03:05:11 10° NE visible
25 Feb 6.4 04:43:16 19° NNW 04:44:18 20° NNW 04:47:49 10° NE visible
25 Feb 6.7 06:24:53 10° NW 06:28:21 20° NNE 06:32:01 10° ENE visible
26 Feb 7.5 02:20:42 14° NE 02:20:42 14° NE 02:21:24 10° NE visible
26 Feb 6.3 04:00:30 23° NNW 04:00:30 23° NNW 04:03:53 10° NE visible
26 Feb 6.7 05:40:50 10° NW 05:44:07 19° N 05:47:34 10° NE visible
27 Feb 6.7 03:17:43 23° N 03:17:43 23° N 03:20:04 10° NE visible
27 Feb 6.7 04:57:31 13° NW 04:59:52 18° N 05:03:14 10° NE visible
28 Feb 7.2 02:34:55 18° NNE 02:34:55 18° NNE 02:36:17 10° NE visible
28 Feb 6.5 04:14:43 18° NNW 04:15:36 19° N 04:19:05 10° NE visible
28 Feb 6.7 05:56:01 10° NW 05:59:40 22° NNE 06:03:32 10° ENE visible
29 Feb 7.7 01:52:06 12° NE 01:52:06 12° NE 01:52:30 10° NE visible
29 Feb 6.6 03:31:55 21° N 03:31:55 21° N 03:35:05 10° NE visible
29 Feb 6.8 05:12:03 10° NW 05:15:27 20° N 05:19:02 10° NE visible
01 Mar 6.9 02:49:05 20° NNE 02:49:05 20° NNE 02:51:12 10° NE visible
01 Mar 6.8 04:28:53 14° NNW 04:31:11 19° N 04:34:38 10° NE visible
01 Mar 6.5 06:10:57 10° NW 06:15:06 29° NNE 06:19:34 10° E visible
02 Mar 7.4 02:06:16 16° NNE 02:06:16 16° NNE 02:07:24 10° NE visible
02 Mar 6.7 03:46:04 18° NNW 03:46:56 19° N 03:50:23 10° NE visible
02 Mar 6.7 05:27:08 10° NW 05:30:58 24° NNE 05:35:04 10° ENE visible
03 Mar 7.8 01:23:26 11° NE 01:23:26 11° NE 01:23:37 10° NE visible
03 Mar 6.8 03:03:14 20° N 03:03:14 20° N 03:06:18 10° NE visible
03 Mar 6.9 04:43:13 10° NW 04:46:46 21° NNE 04:50:31 10° ENE visible
